www.pogodaiklimat.ru
ПОГОДА в Филадельфии
Время
и дата
06:22 23.02
06:54 23.02
07:54 23.02
08:54 23.02
09:54 23.02
10:54 23.02
11:54 23.02
12:25 23.02
12:54 23.02
13:54 23.02
14:01 23.02
14:54 23.02
15:54 23.02
16:54 23.02
17:54 23.02
18:54 23.02
19:54 23.02
20:54 23.02
21:54 23.02
22:54 23.02
23:54 23.02
00:54 24.02
01:54 24.02
02:54 24.02
03:54 24.02
04:54 24.02
05:54 24.02
06:54 24.02
07:37 24.02
07:54 24.02
08:54 24.02
09:54 24.02
10:54 24.02
11:54 24.02
12:54 24.02
13:54 24.02
14:54 24.02
15:54 24.02
16:54 24.02
17:54 24.02
18:54 24.02
19:54 24.02
20:54 24.02
21:54 24.02
22:54 24.02
23:54 24.02
00:54 25.02
01:54 25.02
Ветер
(напр.,м/с)
Видим. Явления Облачность Т
(С)
Тd
(С)
f
(%)
Тe
(С)
Тes
(С)
Комфортность P
(гПа)
Po
(гПа)
Тmin
(С)
Tmax
(С)
R
(мм)
R24
(мм)
S
(см)
С 3 6 км дымка 10/10 120 м +5.0 +3.3 89 +1 +1 996.0
С 3 6 км дымка 10/10 90 м +5.0 +3.3 89 +1 +1 1000.4 996.0 +5.0 +5.6 3.3
штиль 0 6 км дымка 10/10 1140 м +5.0 +3.3 89 +4 +4 1000.8 996.3
С 2 6 км дымка 10/10 1050 м +5.6 +3.3 85 +3 +3 1000.8 996.3
штиль 0 10 км мгла 8/5 690 m
[Ac]
+7.8 +4.4 79 +7 +9 1000.3 996.0
С 2 10 км мгла 10/10 300 м +7.8 +4.4 79 +6 +6 1000.0 995.6
СВ 3 14 км 10/10 960 м +9.4 +3.9 68 +7 +7 999.5 994.9
С 4 16 км 10/10 570 м +8.9 +3.9 71 +6 +6 994.9
С 4 16 км 10/10 600 м +8.9 +3.9 71 +6 +6 998.8 994.6 +5.0 +9.4
С 5 16 км 10/10 840 м +8.9 +3.3 68 +6 +6 998.0 993.6
С 5 16 км 10/10 840 м +8.9 +3.3 68 +6 +6 993.6
С 4 16 км 5/5 1170 м +9.4 +3.3 66 +7 +9 997.7 993.3
С 4 16 км 8/0 3600 m
[Ac]
+9.4 +3.3 66 +7 +8 997.9 993.6
С 4 16 км ясно +8.9 +3.3 68 +6 +7 997.9 993.6
СЗ 2 16 км ясно +8.3 +3.3 71 +7 +7 998.6 994.3
СЗ 2 16 км ясно +7.8 +3.3 73 +6 +6 998.6 994.3 +7.8 +9.4
СЗ 3 16 км ясно +7.8 +2.8 71 +5 +5 999.1 994.6
СЗ 3 16 км ясно +6.7 +2.2 73 +4 +4 999.3 994.9
СЗ 2 16 км ясно +6.7 +2.2 73 +5 +5 999.5 995.3
СЗ 4 16 км ясно +6.1 +2.2 76 +2 +2 999.2 994.9
СЗ 4 16 км ясно +5.6 +1.7 76 +2 +2 999.1 994.6
штиль 0 16 км ясно +5.0 +1.1 76 +4 +4 999.4 994.9 +4.4 +8.3
СЗ 2 14 км 8/0 2850 m
[Ac]
+5.0 +1.7 79 +2 +2 1000.0 995.6
СЗ 3 16 км 10/0 2700 m
[Ac]
+6.1 +1.7 73 +3 +3 1000.3 996.0
С 3 16 км 10/8 1800 m
[Ac]
+6.1 +1.7 73 +3 +3 1000.6 996.3
С 4 16 км 10/10 1440 м +6.1 +1.7 73 +2 +2 1001.1 996.6
С 4 14 км 10/10 1380 м +6.1 +1.1 70 +3 +3 1002.0 997.6
СЗ 5 10 км слабый дождь 10/10 720 m
[Ns]
+4.4 +0.6 76 0 0 1003.7 999.3 +4.4 +6.1 0.3 0.3
С 4 13 км 10/10 960 м +3.9 +0.6 79 0 0 1000.0
С 3 16 км 10/10 1260 м +3.9 0.0 76 0 0 1004.6 1000.0
СЗ 5 16 км 10/10 1650 м +4.4 -1.7 65 0 0 1005.6 1001.4
С 5 16 км 10/0 2250 m
[Ac]
+4.4 -1.7 65 0 +1 1006.1 1001.7 0.5
С 6 16 км 8/2 900 m
[Ac]
+4.4 -2.8 59 0 +1 1006.9 1002.4
СЗ 8
{10}
16 км ясно +5.0 -4.4 51 0 +1 1007.4 1003.0
С 6 16 км ясно +6.1 -5.6 43 +2 +6 1007.3 1003.0 +3.9 +6.1 0.5
СЗ 6 16 км ясно +6.1 -7.8 36 +2 +6 1007.3 1003.0
С 7
{9}
16 км ясно +6.1 -8.9 33 +2 +4 1008.1 1003.7
СЗ 6 16 км ясно +5.0 -10.0 33 +1 +2 1008.9 1004.4
СЗ 7 16 км ясно +3.9 -10.6 34 -1 -1 1010.1 1005.7
СЗ 7 16 км ясно +2.8 -11.7 33 -2 -2 1011.4 1007.1
СЗ 7 16 км ясно +1.7 -12.2 35 -4 -4 1012.9 1008.4 +1.7 +6.7
СЗ 6 16 км ясно +0.6 -12.2 38 -5 -5 1014.1 1009.8
СЗ 6 16 км ясно -0.6 -12.2 41 -7 -7 1015.3 1010.8
С 6 16 км ясно -1.1 -12.2 43 -7 -7 1016.0 1011.5
С 6 16 км ясно -2.2 -12.8 44 -9 -9 1016.6 1012.1
СЗ 6 16 км ясно -2.8 -13.9 42 -9 -9 1017.5 1013.2
С 7 16 км ясно -2.8 -14.4 40 -10 -10 1018.0 1013.5 -2.8 +1.7
С 3 16 км ясно -3.9 -14.4 44 -9 -9 1019.0 1014.5
Местоположение метеостанции Northeast Philadelphia Airport: широта 40.0789 долгота -75.0136 высота над уровнем моря 36 м.
В архиве по умолчанию представлена погода в Филадельфии за последние 1-2 суток. Обновление информации о фактической погоде в базе происходит ежечасно! Архивные данные за месяц целиком и за предыдущие месяцы Вы можете получить, выбрав интересующий диапазон дат из раскрывающегося списка и нажав кнопку "Ввод!".
Внимание! Архив погоды МЕТАР в базе сайта по станциям, не включенным в климатический монитор, хранится не более 60 дней. Нет смысла пытаться выбрать более раннюю дату.
*Определитесь, кто Вы:
Внимание! Время в таблицах - местное (без учета летнего времени). Для получения всемирного времени необходимо вычесть поправку, которая равна -5 ч.
Смотрите также архив погоды в соседних городах и на ближайших метеорологических станциях:
Партнеры нашего сайта:      
Пояснения к столбцам:
  • Ветер - указаны скорость ветра в м/с - средняя за 10 мин, порывы в срок и между сроками (в фигурных скобках) и направление, откуда дует ветер: С - северный,
  • СВ - северо-восточный, В - восточный, ЮВ - юго-восточный, Ю - южный, ЮЗ - юго-западный, З - западный, СЗ - северо-западный.
  • Видимость - горизонтальная дальность видимости в метрах или километрах. При видимости от 1 до 10 км при отсутствии осадков обычно наблюдается дымка, при ухудшении видимости до 1 км и менее - туман. В сухую погоду видимость может ухудшаться дымом, пылью или мглою.
  • Явления - указаны атмосферные явления, наблюдавшиеся в срок или в последний час перед сроком; фигурными скобками обозначены явления, наблюдавшиеся между сроками (за 1-3 часа до срока); квадратными скобками обозначены град или гололедные отложения с указанием их диаметра в мм.
  • Облачность - указаны через наклонную черту общая и нижняя облачность в баллах и высота нижней границы облаков в метрах; квадратными скобками обозначены формы облаков: Ci - перистые, Cs - перисто-слоистые, Cc - перисто-кучевые, Ac - высококучевые, As - высокослоистые, Sc - слоисто-кучевые, Ns - слоисто-дождевые, Cu - кучевые, Cb - кучево-дождевые. Подробнее классификацию облаков см. в Атласе облаков (PDF).
  • T - Температура воздуха - температура, измеренная на высоте 2 м над землей.
  • Td - Температура точки росы - температура, при понижении до которой содержащийся в воздухе водяной пар достигнет насыщения.
  • f - Относительная влажность воздуха - влажноcть воздуха, измеренная на высоте 2 м над землей.
  • Te - Эффективная температура - температура, которую ощущает одетый по сезону человек в тени. Характеристика душности погоды. При расчете учитывается влияние влажности воздуха и скорости ветра на теплоощущения человека.
  • Tes - Эффективная температура на солнце - температура, которую ощущает человек, с поправкой на солнечный нагрев. Характеристика знойности погоды. Зависит от высоты солнца над горизонтом, облачности и скорости ветра. Ночью, в пасмурную погоду, а также при ветре 12 м/с и более поправка равна нулю.
  • P - Атмосферное давление - приведенное к уровню моря атмосферное давление.
  • Po - Атмосферное давление - измеренное на уровне метеостанции атмосферное давление.
  • Tmin - Минимальная температура - минимум температуры воздуха на высоте 2 м над землей.
  • Tmax - Максимальная температура - максимум температуры воздуха на высоте 2 м над землей.
  • R - Количество осадков - Количество выпавших осадков за период времени, мм. При наведении курсора мыши на число - период времени, за который выпало указанное количество осадков.
  • R24 - Количество осадков - Количество выпавших осадков за 24 часа, мм.
  • S - Снежный покров - Высота снежного покрова, см. При наведении курсора мыши на число - состояние снежного покрова и степень покрытия местности в баллах.